sat.trackr.live / text

‹ back to catalog

STARLINK-37468

NORAD 68857 · 2026-094U

PAYLOAD ACTIVE UNKNOWN

§ Identity

Operator
Country
US
Launch date
2026-04-26
Launch site
AFWTR
Launch vehicle
Mass (kg)
RCS (m²)

Purposes: comms

External: N2YO · Heavens-Above · Gunter

§ Orbital elements

Epoch: 2026-09-19T23:59:52.685376Z

Period
93.91 min
Inclination
97.2844°
Eccentricity
0.0001271
Mean motion
15.33448413 rev/d
Perigee alt
464.7 km
Apogee alt
466.4 km
Semi-major
6,843.7 km
B*
6.0649e-4
RAAN
276.1714°
Arg perigee
88.4789°
Mean anomaly
271.6599°
Rev number
2,258

§ Raw data

STARLINK-374681 68857U 26094U   26262.99991534  .00019558  00000+0  60649-3 0  99972 68857  97.2844 276.1714 0001271  88.4789 271.6599 15.33448413 22585

JSON: /api/v1/satellites/68857 · /tle

For live sub-satellite position, see the globe view (requires WebGL).

§ Visibility from observer

Set your observer location to see the next 7 days of passes ≥ 10°. The values pass through the URL so the page stays shareable.

No JS? Fill the form by hand. The geolocation button needs JavaScript.